Time,TemperatureF,DewpointF,PressureIn,WindDirection,WindDirectionDegrees,WindSpeedMPH,WindSpeedGustMPH,Humidity,HourlyPrecipIn,Conditions,Clouds,dailyrainin,SoftwareType,DateUTC
2013-10-03 09:24:00,41.0,37.1,27.34,WSW,255,0.0,0.0,86,0.00,,,0.00,VWS V14.01,2013-10-03 16:24:00,
2013-10-03 09:29:00,36.7,35.7,27.49,WNW,284,0.0,0.0,96,0.04,,,0.04,VWS V14.01,2013-10-03 16:29:00,
2013-10-03 09:34:00,36.9,35.8,27.49,WNW,284,0.0,0.0,96,0.04,,,0.04,VWS V14.01,2013-10-03 16:34:00,
2013-10-03 09:39:00,37.4,36.4,27.49,South,184,0.0,0.0,96,0.04,,,0.04,VWS V14.01,2013-10-03 16:39:00,
2013-10-03 09:44:00,37.9,36.9,27.52,SSE,167,0.0,0.0,96,0.04,,,0.04,VWS V14.01,2013-10-03 16:44:00,
2013-10-03 09:49:00,38.5,37.4,27.52,SSW,195,0.0,0.0,96,0.04,,,0.04,VWS V14.01,2013-10-03 16:49:00,
2013-10-03 09:54:00,39.0,37.7,27.52,SSE,147,0.0,0.0,95,0.04,,,0.04,VWS V14.01,2013-10-03 16:54:00,
2013-10-03 09:59:00,39.4,37.2,27.52,SSW,195,0.0,0.0,92,0.04,,,0.04,VWS V14.01,2013-10-03 16:59:00,
2013-10-03 10:04:00,39.9,36.7,27.52,South,177,0.0,0.0,88,0.04,,,0.04,VWS V14.01,2013-10-03 17:04:00,
2013-10-03 10:09:00,40.5,36.3,27.52,SSW,206,0.0,0.0,85,0.04,,,0.04,VWS V14.01,2013-10-03 17:09:00,
2013-10-03 10:14:00,40.8,36.7,27.52,WSW,242,2.7,2.7,85,0.04,,,0.04,VWS V14.01,2013-10-03 17:14:00,
2013-10-03 10:19:00,41.0,35.9,27.52,SSW,192,0.0,0.0,82,0.04,,,0.04,VWS V14.01,2013-10-03 17:19:00,
2013-10-03 10:24:00,41.4,34.0,27.52,East,81,0.0,0.0,75,0.04,,,0.04,VWS V14.01,2013-10-03 17:24:00,
2013-10-03 10:29:00,41.9,34.2,27.49,SSW,204,0.0,0.0,74,0.00,,,0.04,VWS V14.01,2013-10-03 17:29:00,
2013-10-03 10:34:00,42.4,32.6,27.49,West,275,0.0,0.0,68,0.00,,,0.04,VWS V14.01,2013-10-03 17:34:00,
2013-10-03 10:39:00,43.0,30.9,27.49,NW,307,0.0,0.0,62,0.00,,,0.04,VWS V14.01,2013-10-03 17:39:00,
2013-10-03 10:44:00,43.2,31.4,27.52,SW,224,0.0,0.0,63,0.00,,,0.04,VWS V14.01,2013-10-03 17:44:00,
2013-10-03 10:49:00,43.7,30.7,27.52,WNW,297,0.0,0.0,60,0.00,,,0.04,VWS V14.01,2013-10-03 17:49:00,
2013-10-03 10:54:00,43.9,32.1,27.52,West,267,0.0,0.0,63,0.00,,,0.04,VWS V14.01,2013-10-03 17:54:00,
2013-10-03 10:59:00,43.7,31.1,27.52,West,267,0.0,0.0,61,0.00,,,0.04,VWS V14.01,2013-10-03 17:59:00,
2013-10-03 11:04:00,44.1,31.5,27.52,SSW,195,0.0,0.0,61,0.00,,,0.04,VWS V14.01,2013-10-03 18:04:00,
2013-10-03 11:09:00,45.0,30.2,27.52,NW,326,0.0,0.0,56,0.00,,,0.04,VWS V14.01,2013-10-03 18:09:00,
2013-10-03 11:14:00,45.7,28.6,27.52,SE,132,0.0,0.0,51,0.00,,,0.04,VWS V14.01,2013-10-03 18:14:00,
2013-10-03 11:19:00,46.0,29.4,27.52,SSE,152,0.0,0.0,52,0.00,,,0.04,VWS V14.01,2013-10-03 18:19:00,
2013-10-03 11:24:00,46.6,29.0,27.52,West,259,2.7,3.6,50,0.00,,,0.04,VWS V14.01,2013-10-03 18:24:00,
2013-10-03 11:29:00,46.9,29.3,27.52,SW,234,0.0,0.0,50,0.00,,,0.04,VWS V14.01,2013-10-03 18:29:00,
2013-10-03 11:34:00,47.1,29.0,27.52,ESE,119,0.0,0.0,49,0.00,,,0.04,VWS V14.01,2013-10-03 18:34:00,
2013-10-03 11:39:00,47.3,28.6,27.52,WSW,237,0.0,0.0,48,0.00,,,0.04,VWS V14.01,2013-10-03 18:39:00,
2013-10-03 11:44:00,47.3,28.6,27.52,SE,136,0.0,0.0,48,0.00,,,0.04,VWS V14.01,2013-10-03 18:44:00,
2013-10-03 11:49:00,47.5,28.8,27.52,NW,318,2.7,2.7,48,0.00,,,0.04,VWS V14.01,2013-10-03 18:49:00,
2013-10-03 11:54:00,47.5,28.8,27.52,SSW,206,0.0,0.0,48,0.00,,,0.04,VWS V14.01,2013-10-03 18:54:00,
2013-10-03 11:59:00,48.0,31.2,27.52,ENE,74,0.0,0.0,52,0.00,,,0.04,VWS V14.01,2013-10-03 18:59:00,
2013-10-03 12:04:00,48.7,28.9,27.52,South,179,3.1,3.1,46,0.00,,,0.04,VWS V14.01,2013-10-03 19:04:00,
2013-10-03 12:09:00,49.1,28.7,27.52,ENE,75,0.0,0.0,45,0.00,,,0.04,VWS V14.01,2013-10-03 19:09:00,
2013-10-03 12:14:00,49.3,29.9,27.55,East,91,0.0,2.2,47,0.00,,,0.04,VWS V14.01,2013-10-03 19:14:00,
2013-10-03 12:19:00,49.3,28.9,27.55,WNW,288,2.2,4.9,45,0.00,,,0.04,VWS V14.01,2013-10-03 19:19:00,
2013-10-03 12:24:00,49.8,29.9,27.55,ESE,123,0.0,3.1,46,0.00,,,0.04,VWS V14.01,2013-10-03 19:24:00,
2013-10-03 12:29:00,49.8,27.7,27.55,NNW,329,3.6,4.0,42,0.00,,,0.04,VWS V14.01,2013-10-03 19:29:00,
2013-10-03 12:34:00,49.5,27.3,27.55,North,2,2.7,4.0,42,0.00,,,0.04,VWS V14.01,2013-10-03 19:34:00,
2013-10-03 12:39:00,50.2,28.6,27.55,NNW,336,3.1,3.1,43,0.00,,,0.04,VWS V14.01,2013-10-03 19:39:00,
2013-10-03 12:44:00,50.7,28.5,27.52,South,170,0.0,0.0,42,0.00,,,0.04,VWS V14.01,2013-10-03 19:44:00,
2013-10-03 12:49:00,50.9,28.6,27.52,ENE,66,2.2,2.2,42,0.00,,,0.04,VWS V14.01,2013-10-03 19:49:00,
2013-10-03 12:54:00,50.5,27.7,27.52,NW,314,3.6,3.6,41,0.00,,,0.04,VWS V14.01,2013-10-03 19:54:00,
2013-10-03 12:59:00,50.5,28.9,27.55,NE,53,0.0,0.0,43,0.00,,,0.04,VWS V14.01,2013-10-03 19:59:00,
2013-10-03 13:04:00,51.1,28.8,27.55,East,80,0.0,0.0,42,0.00,,,0.04,VWS V14.01,2013-10-03 20:04:00,
2013-10-03 13:09:00,51.1,27.6,27.55,ESE,115,0.0,0.0,40,0.00,,,0.04,VWS V14.01,2013-10-03 20:09:00,
2013-10-03 13:14:00,51.1,28.2,27.52,East,100,0.0,0.0,41,0.00,,,0.04,VWS V14.01,2013-10-03 20:14:00,
2013-10-03 13:19:00,51.4,29.1,27.52,East,81,0.0,0.0,42,0.00,,,0.04,VWS V14.01,2013-10-03 20:19:00,
2013-10-03 13:24:00,51.6,29.9,27.52,WNW,300,4.9,4.9,43,0.00,,,0.04,VWS V14.01,2013-10-03 20:24:00,
2013-10-03 13:29:00,51.6,28.7,27.52,East,96,2.2,2.2,41,0.00,,,0.04,VWS V14.01,2013-10-03 20:29:00,
2013-10-03 18:16:00,51.4,27.9,27.52,NW,322,3.1,4.0,40,0.00,,,0.04,VWS V14.01,2013-10-04 01:16:00,
2013-10-03 18:21:00,48.7,27.3,27.55,North,0,0.0,0.0,43,0.00,,,0.04,VWS V14.01,2013-10-04 01:21:00,
2013-10-03 18:26:00,48.4,27.5,27.55,North,0,0.0,0.0,44,0.00,,,0.04,VWS V14.01,2013-10-04 01:26:00,
2013-10-03 18:31:00,47.7,28.4,27.55,North,0,0.0,0.0,47,0.00,,,0.04,VWS V14.01,2013-10-04 01:31:00,
2013-10-03 18:36:00,47.1,28.5,27.55,North,0,0.0,0.0,48,0.00,,,0.04,VWS V14.01,2013-10-04 01:36:00,
2013-10-03 18:41:00,46.4,28.3,27.55,North,0,0.0,0.0,49,0.00,,,0.04,VWS V14.01,2013-10-04 01:41:00,
2013-10-03 18:46:00,45.9,28.8,27.55,North,0,0.0,0.0,51,0.00,,,0.04,VWS V14.01,2013-10-04 01:46:00,
2013-10-03 18:51:00,45.3,28.3,27.55,North,0,0.0,0.0,51,0.00,,,0.04,VWS V14.01,2013-10-04 01:51:00,
2013-10-03 18:56:00,44.6,28.1,27.55,North,0,0.0,0.0,52,0.00,,,0.04,VWS V14.01,2013-10-04 01:56:00,
2013-10-03 19:01:00,44.1,28.9,27.55,North,0,0.0,0.0,55,0.00,,,0.04,VWS V14.01,2013-10-04 02:01:00,
2013-10-03 19:06:00,43.7,29.9,27.55,North,0,0.0,0.0,58,0.00,,,0.04,VWS V14.01,2013-10-04 02:06:00,
2013-10-03 19:11:00,43.3,29.6,27.55,North,0,0.0,0.0,58,0.00,,,0.04,VWS V14.01,2013-10-04 02:11:00,
2013-10-03 19:16:00,43.0,28.8,27.58,North,0,0.0,0.0,57,0.00,,,0.04,VWS V14.01,2013-10-04 02:16:00,
2013-10-03 19:21:00,42.4,28.7,27.58,North,0,0.0,0.0,58,0.00,,,0.04,VWS V14.01,2013-10-04 02:21:00,
2013-10-03 19:26:00,42.3,29.0,27.58,North,0,0.0,0.0,59,0.00,,,0.04,VWS V14.01,2013-10-04 02:26:00,
2013-10-03 19:31:00,41.7,28.9,27.58,North,0,0.0,0.0,60,0.00,,,0.04,VWS V14.01,2013-10-04 02:31:00,
2013-10-03 19:36:00,41.5,29.1,27.58,North,0,0.0,0.0,61,0.00,,,0.04,VWS V14.01,2013-10-04 02:36:00,
2013-10-03 19:41:00,41.2,29.6,27.58,North,0,0.0,0.0,63,0.00,,,0.04,VWS V14.01,2013-10-04 02:41:00,
2013-10-03 19:46:00,41.0,29.4,27.58,North,0,0.0,0.0,63,0.00,,,0.04,VWS V14.01,2013-10-04 02:46:00,
2013-10-03 19:51:00,40.6,29.4,27.58,North,0,0.0,0.0,64,0.00,,,0.04,VWS V14.01,2013-10-04 02:51:00,
2013-10-03 19:56:00,40.6,29.8,27.58,North,0,0.0,0.0,65,0.00,,,0.04,VWS V14.01,2013-10-04 02:56:00,
2013-10-03 20:01:00,40.5,30.0,27.55,North,0,0.0,0.0,66,0.00,,,0.04,VWS V14.01,2013-10-04 03:01:00,
2013-10-03 20:06:00,40.3,29.8,27.55,North,0,0.0,0.0,66,0.00,,,0.04,VWS V14.01,2013-10-04 03:06:00,
2013-10-03 20:11:00,40.3,29.8,27.55,North,0,0.0,0.0,66,0.00,,,0.04,VWS V14.01,2013-10-04 03:11:00,
2013-10-03 20:16:00,40.1,30.0,27.58,North,0,0.0,0.0,67,0.00,,,0.04,VWS V14.01,2013-10-04 03:16:00,
2013-10-03 20:21:00,39.9,29.9,27.58,North,0,0.0,0.0,67,0.00,,,0.04,VWS V14.01,2013-10-04 03:21:00,
2013-10-03 20:26:00,39.7,29.7,27.58,North,0,0.0,0.0,67,0.00,,,0.04,VWS V14.01,2013-10-04 03:26:00,
2013-10-03 20:31:00,39.4,29.7,27.58,North,0,0.0,0.0,68,0.00,,,0.04,VWS V14.01,2013-10-04 03:31:00,
2013-10-03 20:36:00,39.2,29.5,27.58,North,0,0.0,0.0,68,0.00,,,0.04,VWS V14.01,2013-10-04 03:36:00,
2013-10-03 20:41:00,39.0,30.4,27.58,North,0,0.0,0.0,71,0.00,,,0.04,VWS V14.01,2013-10-04 03:41:00,
2013-10-03 20:46:00,38.8,30.6,27.58,North,0,0.0,0.0,72,0.00,,,0.04,VWS V14.01,2013-10-04 03:46:00,
2013-10-03 20:51:00,38.8,30.9,27.58,North,0,0.0,0.0,73,0.00,,,0.04,VWS V14.01,2013-10-04 03:51:00,
2013-10-03 20:56:00,38.8,30.6,27.58,North,0,0.0,0.0,72,0.00,,,0.04,VWS V14.01,2013-10-04 03:56:00,
2013-10-03 21:31:00,37.6,30.1,27.58,North,0,0.0,0.0,74,0.00,,,0.04,VWS V14.01,2013-10-04 04:31:00,
2013-10-03 21:32:00,37.6,30.1,27.58,North,0,0.0,0.0,74,0.00,,,0.04,VWS V14.01,2013-10-04 04:32:00,
2013-10-03 21:35:00,37.6,30.1,27.58,North,0,0.0,0.0,74,0.00,,,0.04,VWS V14.01,2013-10-04 04:35:00,
2013-10-03 21:36:00,37.6,30.4,27.58,North,0,0.0,0.0,75,0.00,,,0.04,VWS V14.01,2013-10-04 04:36:00,
2013-10-03 21:38:00,37.6,30.4,27.58,North,0,0.0,0.0,75,0.00,,,0.04,VWS V14.01,2013-10-04 04:38:00,
2013-10-03 21:39:00,37.6,30.4,27.58,North,0,0.0,0.0,75,0.00,,,0.04,VWS V14.01,2013-10-04 04:39:00,
2013-10-03 21:42:00,37.4,30.2,27.58,North,0,0.0,0.0,75,0.00,,,0.04,VWS V14.01,2013-10-04 04:42:00,
2013-10-03 21:43:00,37.4,30.2,27.58,North,0,0.0,0.0,75,0.00,,,0.04,VWS V14.01,2013-10-04 04:43:00,
2013-10-03 21:44:00,37.4,30.2,27.58,North,0,0.0,0.0,75,0.00,,,0.04,VWS V14.01,2013-10-04 04:44:00,
2013-10-03 21:46:00,37.2,30.4,27.58,North,0,0.0,0.0,76,0.00,,,0.04,VWS V14.01,2013-10-04 04:46:00,
2013-10-03 21:47:00,37.2,30.4,27.58,North,0,0.0,0.0,76,0.00,,,0.04,VWS V14.01,2013-10-04 04:47:00,
2013-10-03 21:49:00,37.0,29.9,27.58,North,0,0.0,0.0,75,0.00,,,0.04,VWS V14.01,2013-10-04 04:49:00,
2013-10-03 21:52:00,36.9,30.0,27.58,North,0,0.0,0.0,76,0.00,,,0.04,VWS V14.01,2013-10-04 04:52:00,
2013-10-03 21:55:00,36.9,30.0,27.58,North,0,0.0,0.0,76,0.00,,,0.04,VWS V14.01,2013-10-04 04:55:00,
2013-10-03 21:56:00,36.9,30.0,27.58,North,0,0.0,0.0,76,0.00,,,0.04,VWS V14.01,2013-10-04 04:56:00,
2013-10-03 22:00:00,36.7,29.8,27.58,North,0,0.0,0.0,76,0.00,,,0.04,VWS V14.01,2013-10-04 05:00:00,
2013-10-03 22:01:00,36.7,29.8,27.58,North,0,0.0,0.0,76,0.00,,,0.04,VWS V14.01,2013-10-04 05:01:00,
2013-10-03 22:02:00,36.5,29.7,27.58,North,0,0.0,0.0,76,0.00,,,0.04,VWS V14.01,2013-10-04 05:02:00,
2013-10-03 22:05:00,36.3,29.5,27.58,North,0,0.0,0.0,76,0.00,,,0.04,VWS V14.01,2013-10-04 05:05:00,
2013-10-03 22:07:00,36.3,29.5,27.58,North,0,0.0,0.0,76,0.00,,,0.04,VWS V14.01,2013-10-04 05:07:00,
2013-10-03 22:08:00,36.3,29.5,27.58,North,0,0.0,0.0,76,0.00,,,0.04,VWS V14.01,2013-10-04 05:08:00,
2013-10-03 22:12:00,36.1,29.6,27.58,North,0,0.0,0.0,77,0.00,,,0.04,VWS V14.01,2013-10-04 05:12:00,
2013-10-03 22:14:00,36.1,29.6,27.61,North,0,0.0,0.0,77,0.00,,,0.04,VWS V14.01,2013-10-04 05:14:00,
2013-10-03 22:16:00,36.0,29.5,27.61,North,0,0.0,0.0,77,0.00,,,0.04,VWS V14.01,2013-10-04 05:16:00,
2013-10-03 22:19:00,36.0,29.5,27.61,North,0,0.0,0.0,77,0.00,,,0.04,VWS V14.01,2013-10-04 05:19:00,
2013-10-03 22:24:00,35.8,29.6,27.61,North,0,0.0,0.0,78,0.00,,,0.04,VWS V14.01,2013-10-04 05:24:00,
2013-10-03 22:31:00,35.8,29.6,27.61,North,0,0.0,0.0,78,0.00,,,0.04,VWS V14.01,2013-10-04 05:31:00,
2013-10-03 22:36:00,35.8,30.2,27.61,North,0,0.0,0.0,80,0.00,,,0.04,VWS V14.01,2013-10-04 05:36:00,
2013-10-03 22:41:00,35.8,30.2,27.61,North,0,0.0,0.0,80,0.00,,,0.04,VWS V14.01,2013-10-04 05:41:00,
2013-10-03 22:46:00,35.6,30.0,27.61,North,0,0.0,0.0,80,0.00,,,0.04,VWS V14.01,2013-10-04 05:46:00,